Location: Valley of Enchantment
(34.2467°N, 117.3048°W)
Time: 16:01:44
(UTC+00:00)

Cosmos 2058 Rocket - Pass Details

Date: 10 September 2024
Orbit: 607 x 634 km, 82.5° (Epoch: 11 October)

Event Time Altitude Azimuth Distance (km) Brightness Sun altitude
Rises 12:24:33 0° 176° (S) 2,875 6.4 -14.0°
Reaches altitude 10° 12:26:47 10° 173° (S) 1,978 5.6 -13.5°
Maximum altitude 12:31:05 59° 94° (E) 720 3.7 -12.7°
Drops below altitude 10° 12:35:28 10° 15° (NNE) 2,009 6.1 -11.8°
Sets 12:37:44 0° 12° (NNE) 2,925 6.9 -11.3°
